Regional Weather Roundup
Issued by NWS

Home | Current Version | Previous Version | Text Only | Print | Product List | Glossary Off
Versions: 1 2 3 4 5 6 7 8 9 10 11 12 13 14 15 16 17 18 19 20 21 22 23 24 25 26 27 28 29 30 31 32 33 34 35 36 37 38 39 40 41 42 43 44 45 46 47 48 49 50

000
ASUS45 KBOI 310010
RWRID
WEATHER ROUNDUP FOR IDAHO
NATIONAL WEATHER SERVICE BOISE ID
600 PM MDT WED JUL 30 2014

NOTE: "FAIR" INDICATES FEW OR NO CLOUDS BELOW 12000 FEET
WITH NO SIGNIFICANT WEATHER AND/OR OBSTRUCTIONS TO VISIBILITY

IDZ012-014-310100-
SOUTHWEST IDAHO


CITY           SKY/WX    TMP DP  RH WIND       PRES   REMARKS
BOISE          SUNNY     95  46  18 NW8       30.04F HX  91
CALDWELL       SUNNY     93  52  24 N3        30.05F HX  90
MOUNTAIN HOME  MOSUNNY   94  45  18 VRB6      30.04F HX  90
$$

IDZ016-017-310100-
SOUTHCENTRAL IDAHO


CITY           SKY/WX    TMP DP  RH WIND       PRES   REMARKS
BURLEY         SUNNY     87  43  21 E6        30.12F
JEROME         MOSUNNY   87  56  34 W7        30.14F
TWIN FALLS     SUNNY     90  51  26 NW9       30.14F
$$

IDZ019>023-310100-
SOUTHEAST IDAHO


CITY           SKY/WX    TMP DP  RH WIND       PRES   REMARKS
IDAHO FALLS    MOSUNNY   83  47  28 SW9       30.20F
POCATELLO      MOSUNNY   85  47  26 E9        30.17F
REXBURG        MOSUNNY   80  47  31 VRB3      30.21F
$$

IDZ006-010-011-018-031-032-310100-
CENTRAL IDAHO MOUNTAINS


CITY           SKY/WX    TMP DP  RH WIND       PRES   REMARKS
MCCALL         PTSUNNY   82  38  20 NE12G21   30.20R
HAILEY         LGT RAIN  61  55  82 NW10      30.34S
STANLEY          N/A     58  50  75 NW5       30.44R
SALMON         CLOUDY    82  46  28 W7        30.11R
CHALLIS        CLOUDY    77  40  26 NW22G30   30.21R
$$

IDZ002-004-006-007-026-310100-
NORTHERN IDAHO


CITY           SKY/WX    TMP DP  RH WIND       PRES   REMARKS
LEWISTON       SUNNY    101  38  11 CALM      29.94F HX  95
LOWELL         NOT AVBL
COEUR D`ALENE  SUNNY     97  41  14 NW8       29.98F HX  92
MULLAN PASS    SUNNY     78  42  27 VRB3      30.29F
$$


USA.gov is the U.S. government's official web portal to all federal, state and local government web resources and services.